This is the latest recevied weather packets stored in our database for station/object KK7MLS-13. If no packets are shown the sender has not sent any weather packets the latest 10 day(s).
| Time | Temp. | Humidity | Pressure | Rain* | Wind** | Luminosity | Snow |
|---|---|---|---|---|---|---|---|
| 1777265710 | 12.78° C | 56% | 1013 hPa | 0 mm | - | 0 W/m² | - |
| 1777265406 | 12.78° C | 56% | 1012.9 hPa | 0 mm | - | 0 W/m² | - |
| 1777265102 | 12.78° C | 55% | 1012.9 hPa | 0 mm | - | 0 W/m² | - |
| 1777264800 | 13.33° C | 54% | 1013 hPa | 0 mm | - | 0 W/m² | - |
| 1777264497 | 13.33° C | 52% | 1012.7 hPa | 0 mm | - | 0 W/m² | - |
| 1777264195 | 13.89° C | 51% | 1012.6 hPa | 0 mm | - | 0 W/m² | - |
| 1777263891 | 13.89° C | 51% | 1012.8 hPa | 0 mm | - | 0 W/m² | - |
| 1777263588 | 13.89° C | 49% | 1012.5 hPa | 0 mm | - | 0 W/m² | - |
| 1777263284 | 13.89° C | 49% | 1012.4 hPa | 0 mm | - | 0 W/m² | - |
| 1777262981 | 14.44° C | 50% | 1012.3 hPa | 0 mm | - | 0 W/m² | - |
| 1777262678 | 14.44° C | 49% | 1012.1 hPa | 0 mm | - | 0 W/m² | - |
| 1777262374 | 14.44° C | 50% | 1012.2 hPa | 0 mm | - | 0 W/m² | - |
| 1777262071 | 14.44° C | 48% | 1012.1 hPa | 0 mm | - | 0 W/m² | - |
| 1777261768 | 15° C | 48% | 1011.8 hPa | 0 mm | - | 0 W/m² | - |
| 1777261464 | 15° C | 47% | 1011.8 hPa | 0 mm | - | 0 W/m² | - |
| 1777261162 | 15° C | 47% | 1011.8 hPa | 0 mm | - | 0 W/m² | - |
| 1777260861 | 15° C | 46% | 1011.6 hPa | 0 mm | - | 0 W/m² | - |
| 1777260557 | 15.56° C | 46% | 1011.6 hPa | 0 mm | - | 0 W/m² | - |
| 1777260253 | 15.56° C | 44% | 1011.4 hPa | 0 mm | - | 0 W/m² | - |
| 1777259949 | 15.56° C | 43% | 1011.5 hPa | 0 mm | - | 1 W/m² | - |
| 1777259645 | 16.11° C | 44% | 1011.2 hPa | 0 mm | - | 1 W/m² | - |
| 1777259343 | 16.11° C | 46% | 1011.1 hPa | 0 mm | - | 2 W/m² | - |
| 1777259040 | 16.67° C | 49% | 1011 hPa | 0 mm | - | 4 W/m² | - |
| 1777258738 | 16.67° C | 47% | 1010.9 hPa | 0 mm | - | 5 W/m² | - |
| 1777258434 | 17.22° C | 47% | 1010.9 hPa | 0 mm | - | 7 W/m² | - |
* Rain latest hour (hover to see other rain measurements)
** Current wind speed in m/s (hover to see current wind gust speed)